Total_Precipitation_Accumulation
1.47 1.49 1.40 1.61 1.72 1.78 1.86 1.88 1.81 1.69 1.65 1.47 1.47 1.50 1.55 1.42 1.56 1.73 2.24 2.73 3.35 4.21 4.40 4.01 3.70 3.61 3.34 3.20 3.34 3.30 3.33 3.38 3.40 3.39 3.39 3.75 3.89 3.47 3.40 3.39 3.42 3.85 4.29
1.31 1.51 1.41 1.41 1.55 1.76 1.89 1.89 1.84 1.89 1.86 1.65 1.63 1.67 1.65 1.60 1.61 1.69 1.93 2.03 2.29 3.00 3.77 4.17 4.25 4.05 3.66 3.44 3.39 3.42 3.56 3.51 3.37 3.24 3.22 3.45 3.68 3.38 3.33 3.44 3.44 3.76 4.12
1.23 1.47 1.41 1.31 1.34 1.51 1.70 1.94 2.02 2.03 1.82 1.74 1.76 1.75 1.64 1.62 1.62 1.81 1.88 1.97 1.91 2.11 2.71 3.25 3.80 3.98 4.03 3.86 3.51 3.33 3.55 3.55 3.43 3.26 3.18 3.20 3.46 3.44 3.43 3.49 3.42 3.61 3.81
1.02 1.27 1.37 1.29 1.29 1.48 1.75 2.02 2.23 2.27 2.07 2.03 2.07 1.98 1.75 1.69 1.64 1.78 1.85 1.96 2.08 1.88 1.94 2.15 2.63 3.25 3.77 3.83 3.78 3.63 3.66 3.56 3.32 3.19 3.00 2.92 3.16 3.32 3.43 3.43 3.33 3.47 3.60
0.96 1.21 1.45 1.49 1.47 1.66 1.81 1.82 2.08 2.24 2.35 2.26 2.08 1.95 1.89 1.88 1.86 1.80 1.94 1.95 2.01 1.97 1.81 1.58 1.68 2.20 2.89 3.36 3.61 3.67 3.89 3.78 3.41 3.23 2.89 2.70 2.85 3.13 3.47 3.19 3.11 3.16 3.41
1.17 1.39 1.65 1.68 1.76 1.86 1.97 2.19 2.48 2.49 2.42 2.45 2.17 1.91 1.80 1.84 1.93 2.03 2.02 2.02 2.08 1.90 1.73 1.57 1.52 1.53 2.12 2.74 3.12 3.48 3.72 3.78 3.57 3.49 3.12 2.70 2.67 2.92 3.32 3.13 3.03 3.09 3.31
1.36 1.59 1.79 2.02 2.15 2.06 2.09 2.37 2.68 2.78 2.56 2.41 2.51 2.37 2.17 1.98 1.98 1.96 1.96 2.03 2.07 2.01 1.90 1.83 1.76 1.65 1.80 2.10 2.40 2.93 3.37 3.60 3.68 3.70 3.47 3.04 2.82 2.85 3.00 2.86 2.78 3.05 3.38
1.46 1.49 1.77 1.95 2.04 2.18 2.21 2.33 2.66 3.00 2.74 2.46 2.73 3.18 2.95 2.72 2.18 1.83 1.97 2.02 2.12 2.11 2.05 1.91 1.92 1.83 1.85 2.04 1.82 2.00 2.58 3.17 3.63 3.74 3.58 3.32 3.09 2.86 2.91 2.80 2.67 2.77 3.04
1.81 1.77 1.81 1.96 2.05 2.25 2.41 2.43 2.52 2.90 2.93 2.66 2.62 3.27 3.32 3.17 2.90 2.32 1.95 2.01 2.18 2.27 2.29 2.20 2.06 2.00 1.89 2.01 1.85 1.59 1.86 2.27 2.97 3.45 3.67 3.51 3.28 2.98 2.91 2.85 2.79 2.83 2.88
2.13 2.13 2.13 2.24 2.19 2.20 2.31 2.28 2.28 2.55 2.91 2.94 2.71 2.55 2.53 2.72 3.17 2.91 2.30 2.10 2.13 2.15 2.31 2.18 2.19 2.22 2.13 2.06 1.94 1.61 1.44 1.62 2.30 3.12 3.63 3.56 3.37 3.18 3.03 2.96 2.82 2.76 2.77
2.78 2.73 2.63 2.46 2.26 2.22 2.30 2.34 2.36 2.48 2.61 2.78 2.74 2.55 2.48 2.45 2.41 2.74 2.73 2.44 2.21 2.09 2.18 2.23 2.27 2.27 2.25 2.19 2.10 1.74 1.37 1.24 1.58 2.42 3.15 3.40 3.40 3.29 3.20 3.12 2.92 2.72 2.56
2.79 2.72 2.52 2.23 2.06 2.03 2.12 2.30 2.33 2.42 2.43 2.51 2.46 2.30 2.30 2.33 2.38 2.60 2.60 2.54 2.49 2.16 1.98 2.03 2.10 2.15 2.05 2.04 1.92 1.96 1.57 1.25 1.25 1.68 2.28 2.78 3.13 3.37 3.35 3.40 3.21 2.91 2.65
2.14 2.15 2.12 2.08 1.99 1.89 1.96 2.19 2.30 2.36 2.37 2.36 2.28 2.18 2.19 2.08 2.17 2.50 2.70 2.59 2.45 2.16 1.99 1.84 1.90 1.92 1.76 1.83 1.93 2.09 1.77 1.49 1.34 1.41 1.70 2.06 2.39 2.80 3.24 3.55 3.66 3.52 3.33
1.91 1.92 1.95 1.98 1.94 1.88 1.89 2.01 2.14 2.25 2.27 2.21 2.14 2.26 2.27 2.06 2.12 2.21 2.39 2.66 2.54 2.31 2.13 1.85 1.76 1.65 1.66 1.68 1.90 2.13 1.60 1.54 1.42 1.32 1.35 1.56 1.85 2.11 2.48 3.02 3.46 3.58 3.59
1.52 1.61 1.71 1.81 1.77 1.75 1.77 1.91 2.04 2.07 2.15 2.23 2.25 2.26 2.29 2.21 2.20 2.22 2.40 2.60 2.68 2.50 2.29 2.00 1.78 1.61 1.65 1.68 1.93 1.78 1.50 1.54 1.46 1.36 1.34 1.37 1.50 1.75 1.99 2.18 2.43 2.57 2.71
1.41 1.42 1.37 1.41 1.41 1.45 1.48 1.57 1.74 1.82 1.84 1.94 1.99 2.05 2.07 2.06 2.16 2.17 2.28 2.47 2.54 2.50 2.37 2.08 1.84 1.75 1.79 1.70 1.82 1.64 1.60 1.77 1.61 1.43 1.35 1.36 1.38 1.50 1.60 1.70 1.80 1.84 1.85
1.12 1.14 1.05 1.06 1.16 1.17 1.13 1.23 1.34 1.41 1.52 1.62 1.64 1.69 1.76 1.77 1.94 1.98 2.10 2.27 2.40 2.38 2.17 1.98 1.84 1.84 1.86 1.89 1.81 1.64 1.59 1.62 1.61 1.49 1.34 1.31 1.35 1.40 1.46 1.58 1.65 1.62 1.61
0.86 0.87 0.83 0.82 0.92 1.03 1.04 1.13 1.22 1.21 1.30 1.43 1.53 1.55 1.52 1.55 1.67 1.76 1.87 1.98 2.16 2.26 2.17 2.03 1.89 1.79 1.67 1.74 1.88 1.85 1.79 1.72 1.74 1.78 1.65 1.54 1.51 1.46 1.39 1.51 1.63 1.58 1.53
0.82 0.80 0.75 0.78 0.83 0.90 1.04 1.10 1.11 1.11 1.11 1.14 1.23 1.27 1.30 1.39 1.55 1.60 1.63 1.77 1.95 2.05 2.17 2.06 1.96 1.86 1.69 1.64 1.82 1.76 1.77 2.00 1.91 1.96 2.10 1.95 1.75 1.61 1.46 1.48 1.58 1.56 1.49
0.86 0.84 0.75 0.74 0.82 0.92 1.00 1.11 1.11 1.05 1.02 1.05 1.11 1.10 1.07 1.12 1.26 1.42 1.51 1.70 1.90 2.09 2.20 2.16 2.10 2.00 1.87 1.75 1.81 1.94 1.96 2.03 2.06 1.86 1.92 1.99 2.00 1.88 1.70 1.55 1.56 1.60 1.63
0.85 0.83 0.80 0.82 0.87 0.89 0.91 1.08 1.07 1.02 1.04 1.00 1.01 1.05 1.04 1.07 1.11 1.19 1.19 1.39 1.64 1.93 2.09 2.17 2.15 2.12 2.01 1.90 1.78 1.95 2.02 2.12 2.22 2.19 2.10 1.95 1.97 1.83 1.75 1.71 1.64 1.64 1.72
0.90 0.86 0.84 0.87 0.84 0.77 0.99 1.10 1.08 1.05 1.09 1.13 1.07 1.04 1.02 1.01 1.12 1.14 1.12 1.16 1.34 1.54 1.74 1.83 1.88 1.89 1.91 1.97 2.06 2.07 2.04 2.07 2.13 2.16 2.06 2.13 2.14 2.07 1.84 1.68 1.72 1.72 1.76
0.85 0.85 0.83 0.83 0.78 0.77 0.84 0.84 0.93 0.99 1.11 1.15 1.07 1.13 1.14 1.02 1.08 1.12 1.20 1.16 1.11 1.16 1.37 1.57 1.64 1.64 1.73 1.79 2.03 2.07 2.05 2.06 1.95 1.99 1.93 2.05 2.02 1.99 1.88 1.84 1.88 1.75 1.78
0.76 0.80 0.89 0.88 0.78 0.70 0.75 0.71 0.79 0.88 1.00 1.04 1.03 1.09 1.29 1.29 1.18 1.20 1.27 1.32 1.19 1.04 1.09 1.19 1.36 1.51 1.58 1.75 2.08 2.30 2.25 2.00 1.89 1.90 1.84 1.95 1.91 1.86 1.78 1.74 1.83 1.76 1.73
0.65 0.67 0.72 0.79 0.76 0.73 0.75 0.74 0.77 0.80 0.88 0.89 0.92 1.05 1.17 1.26 1.26 1.29 1.22 1.26 1.28 1.14 1.12 1.22 1.23 1.33 1.52 1.69 1.96 2.27 2.34 2.21 2.00 1.88 1.75 1.76 1.82 1.86 1.89 1.79 1.75 1.80 1.77
0.64 0.66 0.67 0.64 0.64 0.66 0.73 0.74 0.81 0.79 0.80 0.75 0.79 0.97 1.20 1.17 1.19 1.27 1.24 1.30 1.38 1.20 1.13 1.23 1.23 1.26 1.31 1.57 1.96 2.15 2.31 2.27 2.12 2.05 1.85 1.81 1.84 1.91 2.19 2.08 1.84 1.76 1.74